Location: �bnet
(46.9957°N, 8.4908°E)
Time: 15:23:22
(UTC+00:00)

CARTOSAT-1 - Pass Details

Date: 11 May 2021
Orbit: 616 x 618 km, 97.8° (Epoch: 17 June)

Event Time Altitude Azimuth Distance (km) Brightness Sun altitude
Exits shadow 20:56:41 28° 178° (S) 1,174 4.5 -17.1°
Maximum altitude 20:58:55 72° 258° (WSW) 653 3.7 -17.3°
Drops below altitude 10° 21:03:15 10° 343° (NNW) 1,993 7.3 -17.8°
Sets 21:05:27 0° 346° (NNW) 2,903 8.3 -18.0°
